Regional Weather Roundup
Issued by NWS

Home | Current Version | Previous Version | Graphics & Text | Print | Product List | Glossary On
Versions: 1 2 3 4 5 6 7 8 9 10 11 12 13 14 15 16 17 18 19 20 21 22 23 24 25 26 27 28 29 30 31 32 33 34 35 36 37 38 39 40 41 42 43 44 45 46 47 48 49 50
000
ASUS43 KLSX 101207
RWRMO

WEATHER SUMMARY FOR MISSOURI
NATIONAL WEATHER SERVICE SPRINGFIELD MO
600 AM CST SAT DEC 10 2016

NOTE: "FAIR" INDICATES FEW OR NO CLOUDS BELOW 12,000 FEET WITH NO
       SIGNIFICANT WEATHER AND/OR OBSTRUCTIONS TO VISIBILITY.
       CURRENT SKY AND/OR WEATHER CONDITIONS ARE NOT AVAILABLE FOR
       CHILLICOTHE AND FARMINGTON.

MOZ001>031-035>038-043-044-053-054-101300-
...NORTHERN AND WESTERN MISSOURI...

CITY           SKY/WX    TMP DP  RH WIND       PRES   REMARKS
KANSAS CTY INT CLOUDY    26  13  57 E7        30.45S WCI  18
6HR MIN TEMP:  25; 6HR MAX TEMP:  27;

KANSAS C DTWN  CLOUDY    28  14  55 E6        30.47F WCI  22
6HR MIN TEMP:  26; 6HR MAX TEMP:  29;

LEE`S SUMMIT   CLOUDY    26  15  63 E5        30.46S WCI  20
6HR MIN TEMP:  24; 6HR MAX TEMP:  26;

ST JOSEPH      CLOUDY    26  14  60 SE5       30.46F WCI  20
6HR MIN TEMP:  25; 6HR MAX TEMP:  26;

CHILLICOTHE      N/A     25  12  58 SE5       30.51S WCI  19
6HR MIN TEMP:  25; 6HR MAX TEMP:  25;

KIRKSVILLE     CLOUDY    24  14  65 S6        30.51S WCI  17
6HR MIN TEMP:  23; 6HR MAX TEMP:  24;


$$
MOZ066>068-077>081-088>096-101>105-101300-
...SOUTHWEST MISSOURI...

CITY           SKY/WX    TMP DP  RH WIND       PRES   REMARKS
SPRINGFIELD    CLOUDY    29  16  58 SE12      30.45F WCI  19
6HR MIN TEMP:  23; 6HR MAX TEMP:  31;

JOPLIN         CLOUDY    33  18  53 S5        30.45F WCI  29
6HR MIN TEMP:  31; 6HR MAX TEMP:  33;

BRANSON        CLOUDY    28  18  64 SE6       30.48F WCI  22

$$
MOZ032>034-039>042-045>050-055>058-069>072-101300-
...CENTRAL MISSOURI...

CITY           SKY/WX    TMP DP  RH WIND       PRES   REMARKS
COLUMBIA       CLOUDY    25  13  60 E7        30.51S WCI  17
6HR MIN TEMP:  24; 6HR MAX TEMP:  25;

JEFFERSON CITY CLOUDY    26  13  57 E3        30.54S
6HR MIN TEMP:  25; 6HR MAX TEMP:  26;

ROLLA          CLOUDY    23  13  65 SE9       30.48F WCI  13
6HR MIN TEMP:  22; 6HR MAX TEMP:  24;

SEDALIA        CLOUDY    27  14  58 SE6       30.49F WCI  20
6HR MIN TEMP:  26; 6HR MAX TEMP:  27;

WHITEMAN AFB   CLOUDY    26  16  66 CALM      30.47S
WARRENSBURG    CLOUDY    27  18  69 CALM      30.48F
OSAGE BEACH    MOCLDY    26  15  63 SE3       30.51F

$$
MOZ051-052-059>065-101300-
...EAST CENTRAL MISSOURI...

CITY           SKY/WX    TMP DP  RH WIND       PRES   REMARKS
ST LOUIS INTL  CLOUDY    27  14  58 S5        30.57S WCI  22
6HR MIN TEMP:  26; 6HR MAX TEMP:  27;

SPIRIT OF STL  CLOUDY    25  17  72 CALM      30.57S
6HR MIN TEMP:  22; 6HR MAX TEMP:  26;

ST CHARLES     CLOUDY    26  20  77 E3        30.58S
6HR MIN TEMP:  24; 6HR MAX TEMP:  26;


$$
MOZ072>076-082>087-097>100-106>115-101300-
...SOUTH CENTRAL AND SOUTHEAST MISSOURI...

CITY           SKY/WX    TMP DP  RH WIND       PRES   REMARKS
CAPE GIRARDEAU CLEAR     17  13  84 CALM      30.60S
6HR MIN TEMP:  16; 6HR MAX TEMP:  20;

FARMINGTON     CLOUDY    14  12  92 CALM      30.55R
6HR MIN TEMP:  13; 6HR MAX TEMP:  19;

POPLAR BLUFF   CLOUDY    18  16  92 CALM      30.60S
6HR MIN TEMP:  18; 6HR MAX TEMP:  22;

WEST PLAINS    CLOUDY    17  12  80 CALM      30.53R
6HR MIN TEMP:  16; 6HR MAX TEMP:  25;


$$


USA.gov is the U.S. government's official web portal to all federal, state and local government web resources and services.